Year,Month,Day,Hour,Minute,Value (Times are PST for temperature in C)
2014,07,15,00,00,15.40
2014,07,15,00,01,15.40
2014,07,15,00,02,15.40
2014,07,15,00,03,15.40
2014,07,15,00,04,15.40
2014,07,15,00,05,15.40
2014,07,15,00,06,15.50
2014,07,15,00,07,15.50
2014,07,15,00,08,15.50
2014,07,15,00,09,15.50
2014,07,15,00,10,15.60
2014,07,15,00,11,15.60
2014,07,15,00,12,15.60
2014,07,15,00,13,15.70
2014,07,15,00,14,15.70
2014,07,15,00,15,15.70
2014,07,15,00,16,15.70
2014,07,15,00,17,15.70
2014,07,15,00,18,15.70
2014,07,15,00,19,15.70
2014,07,15,00,20,15.70
2014,07,15,00,21,15.70
2014,07,15,00,22,15.70
2014,07,15,00,23,15.70
2014,07,15,00,24,15.70
2014,07,15,00,25,15.70
2014,07,15,00,26,15.70
2014,07,15,00,27,15.70
2014,07,15,00,28,15.70
2014,07,15,00,29,15.70
2014,07,15,00,30,15.70
2014,07,15,00,31,15.60
2014,07,15,00,32,15.60
2014,07,15,00,33,15.60
2014,07,15,00,34,15.60
2014,07,15,00,35,15.60
2014,07,15,00,36,15.50
2014,07,15,00,37,15.50
2014,07,15,00,38,15.50
2014,07,15,00,39,15.50
2014,07,15,00,40,15.50
2014,07,15,00,41,15.50
2014,07,15,00,42,15.50
2014,07,15,00,43,15.50
2014,07,15,00,44,15.50
2014,07,15,00,45,15.50
2014,07,15,00,46,15.50
2014,07,15,00,47,15.50
2014,07,15,00,48,15.50
2014,07,15,00,49,15.60
2014,07,15,00,50,15.60
2014,07,15,00,51,15.60
2014,07,15,00,52,15.60
2014,07,15,00,53,15.60
2014,07,15,00,54,15.60
2014,07,15,00,55,15.60
2014,07,15,00,56,15.60
2014,07,15,00,57,15.70
2014,07,15,00,58,15.70
2014,07,15,00,59,15.70
2014,07,15,01,00,15.70
2014,07,15,01,01,15.70
2014,07,15,01,02,15.70
2014,07,15,01,03,15.70
2014,07,15,01,04,15.70
2014,07,15,01,05,15.70
2014,07,15,01,06,15.70
2014,07,15,01,07,15.70
2014,07,15,01,08,15.70
2014,07,15,01,09,15.70
2014,07,15,01,10,15.70
2014,07,15,01,11,15.70
2014,07,15,01,12,15.80
2014,07,15,01,13,15.80
2014,07,15,01,14,15.80
2014,07,15,01,15,15.80
2014,07,15,01,16,15.80
2014,07,15,01,17,15.80
2014,07,15,01,18,15.80
2014,07,15,01,19,15.80
2014,07,15,01,20,15.80
2014,07,15,01,21,15.80
2014,07,15,01,22,15.80
2014,07,15,01,23,15.80
2014,07,15,01,24,15.80
2014,07,15,01,25,15.80
2014,07,15,01,26,15.80
2014,07,15,01,27,15.80
2014,07,15,01,28,15.80
2014,07,15,01,29,15.80
2014,07,15,01,30,15.80
2014,07,15,01,31,15.80
2014,07,15,01,32,15.80
2014,07,15,01,33,15.80
2014,07,15,01,34,15.80
2014,07,15,01,35,15.80
2014,07,15,01,36,15.70
2014,07,15,01,37,15.70
2014,07,15,01,38,15.70
2014,07,15,01,39,15.70
2014,07,15,01,40,15.60
2014,07,15,01,41,15.60
2014,07,15,01,42,15.60
2014,07,15,01,43,15.60
2014,07,15,01,44,15.60
2014,07,15,01,45,15.60
2014,07,15,01,46,15.50
2014,07,15,01,47,15.50
2014,07,15,01,48,15.50
2014,07,15,01,49,15.50
2014,07,15,01,50,15.60
2014,07,15,01,51,15.60
2014,07,15,01,52,15.60
2014,07,15,01,53,15.60
2014,07,15,01,54,15.60
2014,07,15,01,55,15.60
2014,07,15,01,56,15.60
2014,07,15,01,57,15.60
2014,07,15,01,58,15.60
2014,07,15,01,59,15.60
2014,07,15,02,00,15.60
2014,07,15,02,01,15.60
2014,07,15,02,02,15.60
2014,07,15,02,03,15.60
2014,07,15,02,04,15.70
2014,07,15,02,05,15.70
2014,07,15,02,06,15.70
2014,07,15,02,07,15.70
2014,07,15,02,08,15.70
2014,07,15,02,09,15.70
2014,07,15,02,10,15.70
2014,07,15,02,11,15.60
2014,07,15,02,12,15.70
2014,07,15,02,13,15.70
2014,07,15,02,14,15.70
2014,07,15,02,15,15.60
2014,07,15,02,16,15.60
2014,07,15,02,17,15.60
2014,07,15,02,18,15.60
2014,07,15,02,19,15.50
2014,07,15,02,20,15.50
2014,07,15,02,21,15.40
2014,07,15,02,22,15.40
2014,07,15,02,23,15.30
2014,07,15,02,24,15.30
2014,07,15,02,25,15.30
2014,07,15,02,26,15.30
2014,07,15,02,27,15.30
2014,07,15,02,28,15.30
2014,07,15,02,29,15.30
2014,07,15,02,30,15.30
2014,07,15,02,31,15.30
2014,07,15,02,32,15.30
2014,07,15,02,33,15.30
2014,07,15,02,34,15.30
2014,07,15,02,35,15.30
2014,07,15,02,36,15.30
2014,07,15,02,37,15.30
2014,07,15,02,38,15.30
2014,07,15,02,39,15.30
2014,07,15,02,40,15.30
2014,07,15,02,41,15.30
2014,07,15,02,42,15.30
2014,07,15,02,43,15.20
2014,07,15,02,44,15.20
2014,07,15,02,45,15.20
2014,07,15,02,46,15.20
2014,07,15,02,47,15.10
2014,07,15,02,48,15.10
2014,07,15,02,49,15.00
2014,07,15,02,50,14.90
2014,07,15,02,51,14.90
2014,07,15,02,52,14.80
2014,07,15,02,53,14.80
2014,07,15,02,54,14.80
2014,07,15,02,55,14.70
2014,07,15,02,56,14.70
2014,07,15,02,57,14.70
2014,07,15,02,58,14.60
2014,07,15,02,59,14.60
2014,07,15,03,00,14.50
2014,07,15,03,01,14.50
2014,07,15,03,02,14.40
2014,07,15,03,03,14.30
2014,07,15,03,04,14.30
2014,07,15,03,05,14.20
2014,07,15,03,06,14.20
2014,07,15,03,07,14.20
2014,07,15,03,08,14.20
2014,07,15,03,09,14.10
2014,07,15,03,10,14.10
2014,07,15,03,11,14.10
2014,07,15,03,12,14.10
2014,07,15,03,13,14.10
2014,07,15,03,14,14.00
2014,07,15,03,15,14.00
2014,07,15,03,16,14.00
2014,07,15,03,17,14.00
2014,07,15,03,18,14.00
2014,07,15,03,19,14.00
2014,07,15,03,20,13.90
2014,07,15,03,21,13.90
2014,07,15,03,22,13.90
2014,07,15,03,23,13.90
2014,07,15,03,24,13.90
2014,07,15,03,25,13.90
2014,07,15,03,26,14.00
2014,07,15,03,27,14.00
2014,07,15,03,28,14.00
2014,07,15,03,29,13.90
2014,07,15,03,30,13.90
2014,07,15,03,31,13.90
2014,07,15,03,32,13.90
2014,07,15,03,33,13.90
2014,07,15,03,34,13.90
2014,07,15,03,35,13.90
2014,07,15,03,36,13.90
2014,07,15,03,37,13.80
2014,07,15,03,38,13.80
2014,07,15,03,39,13.80
2014,07,15,03,40,13.80
2014,07,15,03,41,13.80
2014,07,15,03,42,13.70
2014,07,15,03,43,13.70
2014,07,15,03,44,13.70
2014,07,15,03,45,13.70
2014,07,15,03,46,13.70
2014,07,15,03,47,13.70
2014,07,15,03,48,13.60
2014,07,15,03,49,13.60
2014,07,15,03,50,13.60
2014,07,15,03,51,13.60
2014,07,15,03,52,13.60
2014,07,15,03,53,13.60
2014,07,15,03,54,13.60
2014,07,15,03,55,13.50
2014,07,15,03,56,13.50
2014,07,15,03,57,13.50
2014,07,15,03,58,13.50
2014,07,15,03,59,13.50
2014,07,15,04,00,13.50
2014,07,15,04,01,13.50
2014,07,15,04,02,13.50
2014,07,15,04,03,13.40
2014,07,15,04,04,13.40
2014,07,15,04,05,13.40
2014,07,15,04,06,13.40
2014,07,15,04,07,13.40
2014,07,15,04,08,13.40
2014,07,15,04,09,13.40
2014,07,15,04,10,13.40
2014,07,15,04,11,13.40
2014,07,15,04,12,13.30
2014,07,15,04,13,13.30
2014,07,15,04,14,13.30
2014,07,15,04,15,13.30
2014,07,15,04,16,13.30
2014,07,15,04,17,13.30
2014,07,15,04,18,13.30
2014,07,15,04,19,13.30
2014,07,15,04,20,13.30
2014,07,15,04,21,13.30
2014,07,15,04,22,13.20
2014,07,15,04,23,13.20
2014,07,15,04,24,13.20
2014,07,15,04,25,13.20
2014,07,15,04,26,13.20
2014,07,15,04,27,13.20
2014,07,15,04,28,13.20
2014,07,15,04,29,13.20
2014,07,15,04,30,13.10
2014,07,15,04,31,13.10
2014,07,15,04,32,13.10
2014,07,15,04,33,13.10
2014,07,15,04,34,13.10
2014,07,15,04,35,13.10
2014,07,15,04,36,13.00
2014,07,15,04,37,13.00
2014,07,15,04,38,13.00
2014,07,15,04,39,13.00
2014,07,15,04,40,12.90
2014,07,15,04,41,12.90
2014,07,15,04,42,12.90
2014,07,15,04,43,12.90
2014,07,15,04,44,12.90
2014,07,15,04,45,12.90
2014,07,15,04,46,12.90
2014,07,15,04,47,12.90
2014,07,15,04,48,12.90
2014,07,15,04,49,12.90
2014,07,15,04,50,12.90
2014,07,15,04,51,12.90
2014,07,15,04,52,12.90
2014,07,15,04,53,12.90
2014,07,15,04,54,12.90
2014,07,15,04,55,12.90
2014,07,15,04,56,12.90
2014,07,15,04,57,12.80
2014,07,15,04,58,12.80
2014,07,15,04,59,12.80
2014,07,15,05,00,12.80
2014,07,15,05,01,12.80
2014,07,15,05,02,12.80
2014,07,15,05,03,12.80
2014,07,15,05,04,12.80
2014,07,15,05,05,12.70
2014,07,15,05,06,12.70
2014,07,15,05,07,12.70
2014,07,15,05,08,12.70
2014,07,15,05,09,12.70
2014,07,15,05,10,12.70
2014,07,15,05,11,12.70
2014,07,15,05,12,12.70
2014,07,15,05,13,12.70
2014,07,15,05,14,12.60
2014,07,15,05,15,12.60
2014,07,15,05,16,12.60
2014,07,15,05,17,12.60
2014,07,15,05,18,12.60
2014,07,15,05,19,12.60
2014,07,15,05,20,12.60
2014,07,15,05,21,12.60
2014,07,15,05,22,12.60
2014,07,15,05,23,12.60
2014,07,15,05,24,12.60
2014,07,15,05,25,12.60
2014,07,15,05,26,12.60
2014,07,15,05,27,12.60
2014,07,15,05,28,12.60
2014,07,15,05,29,12.60
2014,07,15,05,30,12.60
2014,07,15,05,31,12.60
2014,07,15,05,32,12.60
2014,07,15,05,33,12.50
2014,07,15,05,34,12.50
2014,07,15,05,35,12.50
2014,07,15,05,36,12.50
2014,07,15,05,37,12.40
2014,07,15,05,38,12.40
2014,07,15,05,39,12.40
2014,07,15,05,40,12.40
2014,07,15,05,41,12.40
2014,07,15,05,42,12.40
2014,07,15,05,43,12.40
2014,07,15,05,44,12.40
2014,07,15,05,45,12.40
2014,07,15,05,46,12.40
2014,07,15,05,47,12.40
2014,07,15,05,48,12.40
2014,07,15,05,49,12.40
2014,07,15,05,50,12.40
2014,07,15,05,51,12.40
2014,07,15,05,52,12.40
2014,07,15,05,53,12.40
2014,07,15,05,54,12.40
2014,07,15,05,55,12.40
2014,07,15,05,56,12.40
2014,07,15,05,57,12.40
2014,07,15,05,58,12.40
2014,07,15,05,59,12.40
2014,07,15,06,00,12.40
2014,07,15,06,01,12.40
2014,07,15,06,02,12.40
2014,07,15,06,03,12.40
2014,07,15,06,04,12.40
2014,07,15,06,05,12.40
2014,07,15,06,06,12.40
2014,07,15,06,07,12.40
2014,07,15,06,08,12.40
2014,07,15,06,09,12.40
2014,07,15,06,10,12.40
2014,07,15,06,11,12.40
2014,07,15,06,12,12.50
2014,07,15,06,13,12.50
2014,07,15,06,14,12.50
2014,07,15,06,15,12.50
2014,07,15,06,16,12.50
2014,07,15,06,17,12.50
2014,07,15,06,18,12.50
2014,07,15,06,19,12.50
2014,07,15,06,20,12.60
2014,07,15,06,21,12.60
2014,07,15,06,22,12.60
2014,07,15,06,23,12.60
2014,07,15,06,24,12.60
2014,07,15,06,25,12.60
2014,07,15,06,26,12.60
2014,07,15,06,27,12.70
2014,07,15,06,28,12.70
2014,07,15,06,29,12.70
2014,07,15,06,30,12.70
2014,07,15,06,31,12.80
2014,07,15,06,32,12.80
2014,07,15,06,33,12.80
2014,07,15,06,34,12.90
2014,07,15,06,35,13.00
2014,07,15,06,36,13.00
2014,07,15,06,37,13.10
2014,07,15,06,38,13.10
2014,07,15,06,39,13.20
2014,07,15,06,40,13.20
2014,07,15,06,41,13.30
2014,07,15,06,42,13.30
2014,07,15,06,43,13.40
2014,07,15,06,44,13.40
2014,07,15,06,45,13.40
2014,07,15,06,46,13.40
2014,07,15,06,47,13.50
2014,07,15,06,48,13.50
2014,07,15,06,49,13.60
2014,07,15,06,50,13.60
2014,07,15,06,51,13.60
2014,07,15,06,52,13.70
2014,07,15,06,53,13.70
2014,07,15,06,54,13.70
2014,07,15,06,55,13.70
2014,07,15,06,56,13.80
2014,07,15,06,57,13.80
2014,07,15,06,58,13.80
2014,07,15,06,59,13.80
2014,07,15,07,00,13.90
2014,07,15,07,01,13.90
2014,07,15,07,02,13.90
2014,07,15,07,03,14.00
2014,07,15,07,04,14.00
2014,07,15,07,05,14.10
2014,07,15,07,06,14.10
2014,07,15,07,07,14.10
2014,07,15,07,08,14.20
2014,07,15,07,09,14.20
2014,07,15,07,10,14.20
2014,07,15,07,11,14.30
2014,07,15,07,12,14.30
2014,07,15,07,13,14.40
2014,07,15,07,14,14.40
2014,07,15,07,15,14.50
2014,07,15,07,16,14.50
2014,07,15,07,17,14.60
2014,07,15,07,18,14.60
2014,07,15,07,19,14.70
2014,07,15,07,20,14.80
2014,07,15,07,21,14.80
2014,07,15,07,22,14.90
2014,07,15,07,23,15.00
2014,07,15,07,24,15.10
2014,07,15,07,25,15.20
2014,07,15,07,26,15.30
2014,07,15,07,27,15.40
2014,07,15,07,28,15.60
2014,07,15,07,29,15.70
2014,07,15,07,30,15.80
2014,07,15,07,31,15.90
2014,07,15,07,32,16.00
2014,07,15,07,33,16.10
2014,07,15,07,34,16.20
2014,07,15,07,35,16.30
2014,07,15,07,36,16.40
2014,07,15,07,37,16.40
2014,07,15,07,38,16.40
2014,07,15,07,39,16.40
2014,07,15,07,40,16.30
2014,07,15,07,41,16.30
2014,07,15,07,42,16.20
2014,07,15,07,43,16.10
2014,07,15,07,44,16.00
2014,07,15,07,45,16.00
2014,07,15,07,46,16.00
2014,07,15,07,47,15.90
2014,07,15,07,48,15.90
2014,07,15,07,49,15.90
2014,07,15,07,50,15.80
2014,07,15,07,51,15.80
2014,07,15,07,52,15.80
2014,07,15,07,53,15.80
2014,07,15,07,54,15.70
2014,07,15,07,55,15.70
2014,07,15,07,56,15.70
2014,07,15,07,57,15.70
2014,07,15,07,58,15.70
2014,07,15,07,59,15.70
2014,07,15,08,00,15.70
2014,07,15,08,01,15.70
2014,07,15,08,02,15.70
2014,07,15,08,03,15.70
2014,07,15,08,04,15.80
2014,07,15,08,05,15.80
2014,07,15,08,06,15.80
2014,07,15,08,07,15.90
2014,07,15,08,08,15.90
2014,07,15,08,09,15.90
2014,07,15,08,10,15.90
2014,07,15,08,11,15.90
2014,07,15,08,12,15.90
2014,07,15,08,13,16.00
2014,07,15,08,14,16.00
2014,07,15,08,15,16.00
2014,07,15,08,16,16.10
2014,07,15,08,17,16.10
2014,07,15,08,18,16.20
2014,07,15,08,19,16.30
2014,07,15,08,20,16.30
2014,07,15,08,21,16.30
2014,07,15,08,22,16.30
2014,07,15,08,23,16.40
2014,07,15,08,24,16.40
2014,07,15,08,25,16.40
2014,07,15,08,26,16.50
2014,07,15,08,27,16.50
2014,07,15,08,28,16.50
2014,07,15,08,29,16.60
2014,07,15,08,30,16.60
2014,07,15,08,31,16.70
2014,07,15,08,32,16.70
2014,07,15,08,33,16.70
2014,07,15,08,34,16.80
2014,07,15,08,35,16.80
2014,07,15,08,36,16.80
2014,07,15,08,37,16.90
2014,07,15,08,38,16.90
2014,07,15,08,39,17.00
2014,07,15,08,40,17.10
2014,07,15,08,41,17.10
2014,07,15,08,42,17.20
2014,07,15,08,43,17.30
2014,07,15,08,44,17.30
2014,07,15,08,45,17.40
2014,07,15,08,46,17.50
2014,07,15,08,47,17.60
2014,07,15,08,48,17.60
2014,07,15,08,49,17.70
2014,07,15,08,50,17.70
2014,07,15,08,51,17.80
2014,07,15,08,52,17.80
2014,07,15,08,53,17.90
2014,07,15,08,54,17.90
2014,07,15,08,55,17.90
2014,07,15,08,56,17.90
2014,07,15,08,57,18.00
2014,07,15,08,58,18.00
2014,07,15,08,59,18.10
2014,07,15,09,00,18.20
2014,07,15,09,01,18.20
2014,07,15,09,02,18.30
2014,07,15,09,03,18.30
2014,07,15,09,04,18.30
2014,07,15,09,05,18.40
2014,07,15,09,06,18.40
2014,07,15,09,07,18.50
2014,07,15,09,08,18.50
2014,07,15,09,09,18.60
2014,07,15,09,10,18.60
2014,07,15,09,11,18.60
2014,07,15,09,12,18.60
2014,07,15,09,13,18.70
2014,07,15,09,14,18.70
2014,07,15,09,15,18.70
2014,07,15,09,16,18.80
2014,07,15,09,17,18.80
2014,07,15,09,18,18.80
2014,07,15,09,19,18.90
2014,07,15,09,20,18.90
2014,07,15,09,21,18.90
2014,07,15,09,22,19.00
2014,07,15,09,23,19.00
2014,07,15,09,24,19.00
2014,07,15,09,25,18.90
2014,07,15,09,26,18.90
2014,07,15,09,27,18.80
2014,07,15,09,28,18.80
2014,07,15,09,29,18.70
2014,07,15,09,30,18.60
2014,07,15,09,31,18.50
2014,07,15,09,32,18.50
2014,07,15,09,33,18.40
2014,07,15,09,34,18.40
2014,07,15,09,35,18.40
2014,07,15,09,36,18.30
2014,07,15,09,37,18.30
2014,07,15,09,38,18.20
2014,07,15,09,39,18.10
2014,07,15,09,40,18.00
2014,07,15,09,41,17.90
2014,07,15,09,42,17.80
2014,07,15,09,43,17.70
2014,07,15,09,44,17.60
2014,07,15,09,45,17.50
2014,07,15,09,46,17.50
2014,07,15,09,47,17.50
2014,07,15,09,48,17.60
2014,07,15,09,49,17.60
2014,07,15,09,50,17.70
2014,07,15,09,51,17.70
2014,07,15,09,52,17.80
2014,07,15,09,53,17.80
2014,07,15,09,54,17.80
2014,07,15,09,55,17.80
2014,07,15,09,56,17.80
2014,07,15,09,57,17.90
2014,07,15,09,58,17.90
2014,07,15,09,59,18.00
2014,07,15,10,00,18.00
2014,07,15,10,01,18.10
2014,07,15,10,02,18.30
2014,07,15,10,03,18.40
2014,07,15,10,04,18.50
2014,07,15,10,05,18.60
2014,07,15,10,06,18.60
2014,07,15,10,07,18.70
2014,07,15,10,08,18.80
2014,07,15,10,09,18.90
2014,07,15,10,10,18.90
2014,07,15,10,11,18.90
2014,07,15,10,12,18.90
2014,07,15,10,13,19.00
2014,07,15,10,14,19.00
2014,07,15,10,15,19.10
2014,07,15,10,16,19.10
2014,07,15,10,17,19.10
2014,07,15,10,18,19.20
2014,07,15,10,19,19.10
2014,07,15,10,20,19.10
2014,07,15,10,21,19.10
2014,07,15,10,22,19.10
2014,07,15,10,23,19.10
2014,07,15,10,24,19.10
2014,07,15,10,25,19.10
2014,07,15,10,26,19.10
2014,07,15,10,27,19.00
2014,07,15,10,28,18.90
2014,07,15,10,29,18.90
2014,07,15,10,30,18.80
2014,07,15,10,31,18.70
2014,07,15,10,32,18.70
2014,07,15,10,33,18.60
2014,07,15,10,34,18.70
2014,07,15,10,35,18.70
2014,07,15,10,36,18.80
2014,07,15,10,37,18.90
2014,07,15,10,38,19.00
2014,07,15,10,39,19.00
2014,07,15,10,40,19.00
2014,07,15,10,41,19.00
2014,07,15,10,42,19.00
2014,07,15,10,43,18.90
2014,07,15,10,44,18.80
2014,07,15,10,45,18.80
2014,07,15,10,46,18.70
2014,07,15,10,47,18.70
2014,07,15,10,48,18.70
2014,07,15,10,49,18.70
2014,07,15,10,50,18.80
2014,07,15,10,51,18.80
2014,07,15,10,52,18.80
2014,07,15,10,53,18.80
2014,07,15,10,54,18.80
2014,07,15,10,55,18.80
2014,07,15,10,56,18.80
2014,07,15,10,57,18.90
2014,07,15,10,58,18.90
2014,07,15,10,59,18.90
2014,07,15,11,00,19.00
2014,07,15,11,01,19.10
2014,07,15,11,02,19.20
2014,07,15,11,03,19.30
2014,07,15,11,04,19.30
2014,07,15,11,05,19.40
2014,07,15,11,06,19.50
2014,07,15,11,07,19.60
2014,07,15,11,08,19.60
2014,07,15,11,09,19.70
2014,07,15,11,10,19.70
2014,07,15,11,11,19.70
2014,07,15,11,12,19.60
2014,07,15,11,13,19.50
2014,07,15,11,14,19.40
2014,07,15,11,15,19.30
2014,07,15,11,16,19.30
2014,07,15,11,17,19.30
2014,07,15,11,18,19.30
2014,07,15,11,19,19.30
2014,07,15,11,20,19.30
2014,07,15,11,21,19.30
2014,07,15,11,22,19.30
2014,07,15,11,23,19.30
2014,07,15,11,24,19.30
2014,07,15,11,25,19.40
2014,07,15,11,26,19.50
2014,07,15,11,27,19.60
2014,07,15,11,28,19.70
2014,07,15,11,29,19.80
2014,07,15,11,30,19.90
2014,07,15,11,31,20.00
2014,07,15,11,32,20.00
2014,07,15,11,33,20.10
2014,07,15,11,34,20.10
2014,07,15,11,35,20.20
2014,07,15,11,36,20.30
2014,07,15,11,37,20.30
2014,07,15,11,38,20.40
2014,07,15,11,39,20.40
2014,07,15,11,40,20.40
2014,07,15,11,41,20.50
2014,07,15,11,42,20.50
2014,07,15,11,43,20.60
2014,07,15,11,44,20.60
2014,07,15,11,45,20.70
2014,07,15,11,46,20.80
2014,07,15,11,47,20.80
2014,07,15,11,48,20.90
2014,07,15,11,49,20.90
2014,07,15,11,50,20.90
2014,07,15,11,51,20.80
2014,07,15,11,52,20.80
2014,07,15,11,53,20.80
2014,07,15,11,54,20.80
2014,07,15,11,55,20.90
2014,07,15,11,56,20.90
2014,07,15,11,57,21.00
2014,07,15,11,58,21.10
2014,07,15,11,59,21.20
2014,07,15,12,00,21.30
2014,07,15,12,01,21.40
2014,07,15,12,02,21.50
2014,07,15,12,03,21.60
2014,07,15,12,04,21.70
2014,07,15,12,05,21.70
2014,07,15,12,06,21.80
2014,07,15,12,07,21.90
2014,07,15,12,08,21.90
2014,07,15,12,09,21.90
2014,07,15,12,10,21.90
2014,07,15,12,11,22.00
2014,07,15,12,12,22.00
2014,07,15,12,13,22.00
2014,07,15,12,14,22.10
2014,07,15,12,15,22.10
2014,07,15,12,16,22.10
2014,07,15,12,17,22.10
2014,07,15,12,18,22.00
2014,07,15,12,19,22.00
2014,07,15,12,20,22.00
2014,07,15,12,21,22.10
2014,07,15,12,22,22.10
2014,07,15,12,23,22.20
2014,07,15,12,24,22.20
2014,07,15,12,25,22.20
2014,07,15,12,26,22.20
2014,07,15,12,27,22.30
2014,07,15,12,28,22.30
2014,07,15,12,29,22.30
2014,07,15,12,30,22.30
2014,07,15,12,31,22.40
2014,07,15,12,32,22.50
2014,07,15,12,33,22.50
2014,07,15,12,34,22.60
2014,07,15,12,35,22.70
2014,07,15,12,36,22.80
2014,07,15,12,37,22.80
2014,07,15,12,38,22.90
2014,07,15,12,39,22.90
2014,07,15,12,40,23.00
2014,07,15,12,41,23.10
2014,07,15,12,42,23.20
2014,07,15,12,43,23.30
2014,07,15,12,44,23.40
2014,07,15,12,45,23.50
2014,07,15,12,46,23.50
2014,07,15,12,47,23.60
2014,07,15,12,48,23.60
2014,07,15,12,49,23.50
2014,07,15,12,50,23.50
2014,07,15,12,51,23.50
2014,07,15,12,52,23.50
2014,07,15,12,53,23.50
2014,07,15,12,54,23.40
2014,07,15,12,55,23.40
2014,07,15,12,56,23.40
2014,07,15,12,57,23.40
2014,07,15,12,58,23.30
2014,07,15,12,59,23.40
2014,07,15,13,00,23.40
2014,07,15,13,01,23.40
2014,07,15,13,02,23.30
2014,07,15,13,03,23.30
2014,07,15,13,04,23.30
2014,07,15,13,05,23.30
2014,07,15,13,06,23.20
2014,07,15,13,07,23.20
2014,07,15,13,08,23.20
2014,07,15,13,09,23.20
2014,07,15,13,10,23.20
2014,07,15,13,11,23.20
2014,07,15,13,12,23.30
2014,07,15,13,13,23.40
2014,07,15,13,14,23.40
2014,07,15,13,15,23.50
2014,07,15,13,16,23.50
2014,07,15,13,17,23.60
2014,07,15,13,18,23.60
2014,07,15,13,19,23.70
2014,07,15,13,20,23.70
2014,07,15,13,21,23.80
2014,07,15,13,22,23.80
2014,07,15,13,23,23.80
2014,07,15,13,24,23.80
2014,07,15,13,25,23.80
2014,07,15,13,26,23.70
2014,07,15,13,27,23.70
2014,07,15,13,28,23.60
2014,07,15,13,29,23.60
2014,07,15,13,30,23.50
2014,07,15,13,31,23.40
2014,07,15,13,32,23.40
2014,07,15,13,33,23.40
2014,07,15,13,34,23.30
2014,07,15,13,35,23.30
2014,07,15,13,36,23.30
2014,07,15,13,37,23.40
2014,07,15,13,38,23.50
2014,07,15,13,39,23.50
2014,07,15,13,40,23.60
2014,07,15,13,41,23.60
2014,07,15,13,42,23.70
2014,07,15,13,43,23.70
2014,07,15,13,44,23.70
2014,07,15,13,45,23.70
2014,07,15,13,46,23.70
2014,07,15,13,47,23.70
2014,07,15,13,48,23.70
2014,07,15,13,49,23.70
2014,07,15,13,50,23.70
2014,07,15,13,51,23.80
2014,07,15,13,52,23.90
2014,07,15,13,53,23.90
2014,07,15,13,54,23.90
2014,07,15,13,55,23.90
2014,07,15,13,56,23.90
2014,07,15,13,57,24.00
2014,07,15,13,58,24.00
2014,07,15,13,59,24.00
2014,07,15,14,00,24.00
2014,07,15,14,01,24.00
2014,07,15,14,02,24.00
2014,07,15,14,03,24.10
2014,07,15,14,04,24.10
2014,07,15,14,05,24.20
2014,07,15,14,06,24.30
2014,07,15,14,07,24.40
2014,07,15,14,08,24.50
2014,07,15,14,09,24.50
2014,07,15,14,10,24.50
2014,07,15,14,11,24.50
2014,07,15,14,12,24.50
2014,07,15,14,13,24.40
2014,07,15,14,14,24.30
2014,07,15,14,15,24.30
2014,07,15,14,16,24.30
2014,07,15,14,17,24.30
2014,07,15,14,18,24.20
2014,07,15,14,19,24.10
2014,07,15,14,20,24.00
2014,07,15,14,21,23.80
2014,07,15,14,22,23.70
2014,07,15,14,23,23.60
2014,07,15,14,24,23.50
2014,07,15,14,25,23.40
2014,07,15,14,26,23.40
2014,07,15,14,27,23.40
2014,07,15,14,28,23.30
2014,07,15,14,29,23.20
2014,07,15,14,30,23.20
2014,07,15,14,31,23.30
2014,07,15,14,32,23.30
2014,07,15,14,33,23.40
2014,07,15,14,34,23.30
2014,07,15,14,35,23.40
2014,07,15,14,36,23.40
2014,07,15,14,37,23.40
2014,07,15,14,38,23.50
2014,07,15,14,39,23.50
2014,07,15,14,40,23.50
2014,07,15,14,41,23.50
2014,07,15,14,42,23.50
2014,07,15,14,43,23.50
2014,07,15,14,44,23.50
2014,07,15,14,45,23.60
2014,07,15,14,46,23.60
2014,07,15,14,47,23.60
2014,07,15,14,48,23.70
2014,07,15,14,49,23.70
2014,07,15,14,50,23.70
2014,07,15,14,51,23.70
2014,07,15,14,52,23.70
2014,07,15,14,53,23.80
2014,07,15,14,54,23.90
2014,07,15,14,55,23.90
2014,07,15,14,56,24.00
2014,07,15,14,57,24.10
2014,07,15,14,58,24.20
2014,07,15,14,59,24.30
2014,07,15,15,00,24.30
2014,07,15,15,01,24.40
2014,07,15,15,02,24.50
2014,07,15,15,03,24.50
2014,07,15,15,04,24.50
2014,07,15,15,05,24.50
2014,07,15,15,06,24.60
2014,07,15,15,07,24.70
2014,07,15,15,08,24.70
2014,07,15,15,09,24.80
2014,07,15,15,10,24.80
2014,07,15,15,11,24.90
2014,07,15,15,12,25.00
2014,07,15,15,13,25.10
2014,07,15,15,14,25.10
2014,07,15,15,15,25.10
2014,07,15,15,16,25.20
2014,07,15,15,17,25.20
2014,07,15,15,18,25.30
2014,07,15,15,19,25.50
2014,07,15,15,20,25.60
2014,07,15,15,21,25.70
2014,07,15,15,22,25.80
2014,07,15,15,23,26.00
2014,07,15,15,24,26.10
2014,07,15,15,25,26.20
2014,07,15,15,26,26.40
2014,07,15,15,27,26.50
2014,07,15,15,28,26.60
2014,07,15,15,29,26.70
2014,07,15,15,30,26.80
2014,07,15,15,31,27.00
2014,07,15,15,32,27.10
2014,07,15,15,33,27.20
2014,07,15,15,34,27.30
2014,07,15,15,35,27.30
2014,07,15,15,36,27.40
2014,07,15,15,37,27.50
2014,07,15,15,38,27.50
2014,07,15,15,39,27.60
2014,07,15,15,40,27.60
2014,07,15,15,41,27.60
2014,07,15,15,42,27.70
2014,07,15,15,43,27.70
2014,07,15,15,44,27.70
2014,07,15,15,45,27.80
2014,07,15,15,46,27.80
2014,07,15,15,47,27.90
2014,07,15,15,48,27.90
2014,07,15,15,49,28.00
2014,07,15,15,50,28.10
2014,07,15,15,51,28.20
2014,07,15,15,52,28.30
2014,07,15,15,53,28.40
2014,07,15,15,54,28.40
2014,07,15,15,55,28.50
2014,07,15,15,56,28.60
2014,07,15,15,57,28.60
2014,07,15,15,58,28.70
2014,07,15,15,59,28.80
2014,07,15,16,00,28.80
2014,07,15,16,01,28.80
2014,07,15,16,02,28.80
2014,07,15,16,03,28.80
2014,07,15,16,04,28.80
2014,07,15,16,05,28.80
2014,07,15,16,06,28.80
2014,07,15,16,07,28.80
2014,07,15,16,08,28.80
2014,07,15,16,09,28.80
2014,07,15,16,10,28.70
2014,07,15,16,11,28.60
2014,07,15,16,12,28.40
2014,07,15,16,13,28.30
2014,07,15,16,14,28.10
2014,07,15,16,15,28.00
2014,07,15,16,16,27.80
2014,07,15,16,17,27.60
2014,07,15,16,18,27.40
2014,07,15,16,19,27.30
2014,07,15,16,20,27.10
2014,07,15,16,21,27.00
2014,07,15,16,22,26.90
2014,07,15,16,23,26.70
2014,07,15,16,24,26.60
2014,07,15,16,25,26.50
2014,07,15,16,26,26.40
2014,07,15,16,27,26.40
2014,07,15,16,28,26.30
2014,07,15,16,29,26.20
2014,07,15,16,30,26.20
2014,07,15,16,31,26.10
2014,07,15,16,32,26.10
2014,07,15,16,33,26.10
2014,07,15,16,34,26.00
2014,07,15,16,35,25.90
2014,07,15,16,36,25.90
2014,07,15,16,37,25.90
2014,07,15,16,38,25.90
2014,07,15,16,39,25.80
2014,07,15,16,40,25.80
2014,07,15,16,41,25.80
2014,07,15,16,42,25.80
2014,07,15,16,43,25.80
2014,07,15,16,44,25.80
2014,07,15,16,45,25.80
2014,07,15,16,46,25.80
2014,07,15,16,47,25.80
2014,07,15,16,48,25.70
2014,07,15,16,49,25.70
2014,07,15,16,50,25.80
2014,07,15,16,51,25.80
2014,07,15,16,52,25.80
2014,07,15,16,53,25.80
2014,07,15,16,54,25.70
2014,07,15,16,55,25.70
2014,07,15,16,56,25.70
2014,07,15,16,57,25.70
2014,07,15,16,58,25.70
2014,07,15,16,59,25.70
2014,07,15,17,00,25.70
2014,07,15,17,01,25.60
2014,07,15,17,02,25.70
2014,07,15,17,03,25.60
2014,07,15,17,04,25.60
2014,07,15,17,05,25.60
2014,07,15,17,06,25.60
2014,07,15,17,07,25.70
2014,07,15,17,08,25.70
2014,07,15,17,09,25.70
2014,07,15,17,10,25.70
2014,07,15,17,11,25.60
2014,07,15,17,12,25.50
2014,07,15,17,13,25.50
2014,07,15,17,14,25.40
2014,07,15,17,15,25.30
2014,07,15,17,16,25.30
2014,07,15,17,17,25.20
2014,07,15,17,18,25.20
2014,07,15,17,19,25.20